[[{"header":{"parameterUnit":"m.s-1","parameterCategory":2,"la1":30.2991,"la2":30.254,"lo1":-89.0895,"lo2":-89.0444,"dy":0.0017,"dx":0.0017,"nx":28,"ny":28,"refTime":"2024-12-11T03:00:00:Z","depth":"0","parameterNumber":2,"parameterNumberName":"U-component_of_CURRENTS"},"data":[0,0,0,0,0,0,0,0,0,0,0,0,0,0,0,0,0,0,0,0,0,0,0,0,0,0,0,0,0,0,0,0,0,0,0,0,0,0,0,0,0,0,0,0,0,0,0,0,0,0,0,0,0,0,0,0,0,0,-0.2425,-0.2426,0,-0.2447,-0.2447,-0.2448,-0.243,-0.2429,-0.2428,-0.2428,-0.2447,-0.2448,-0.2449,0,0,0,0,0,0,0,0,0,0,0,0,0,-0.2376,-0.2377,-0.2425,-0.2426,-0.2426,-0.2447,-0.2447,-0.2448,-0.243,-0.2429,-0.2428,-0.2428,-0.2446,-0.2447,-0.2449,0,0,0,0,0,0,0,0,0,0,0,0,0,-0.2396,-0.2377,-0.2425,-0.2421,-0.2421,-0.2447,-0.2447,-0.2448,-0.243,-0.2429,-0.2428,-0.2427,-0.2446,-0.2447,-0.2449,-0.2476,0,0,-0.2454,-0.2454,0,0,0,0,0,0,0,0,-0.2395,-0.2397,-0.2421,-0.2421,-0.2422,-0.2436,-0.2437,-0.2458,-0.243,-0.2425,-0.2428,-0.2427,-0.2445,-0.2446,-0.245,-0.2477,-0.2478,-0.2454,-0.2455,-0.2455,-0.2456,0,0,0,0,0,0,0,-0.2393,-0.2396,-0.2432,-0.2422,-0.2422,-0.2421,-0.2423,-0.2441,-0.2438,-0.2425,-0.2424,-0.243,-0.2444,-0.2448,-0.245,-0.2478,-0.2454,-0.2455,-0.2456,-0.2457,-0.2479,-0.2479,0,0,0,0,0,0,-0.2395,-0.2395,-0.2431,-0.2433,-0.2408,-0.2423,-0.2425,-0.2431,-0.2438,-0.2438,-0.2431,-0.2429,-0.2446,-0.2448,-0.2451,-0.2473,-0.2455,-0.2457,-0.2458,-0.248,-0.2479,-0.2479,0,0,0,0,0,0,-0.2394,-0.2398,-0.2431,-0.2416,-0.242,-0.2425,-0.2432,-0.2432,-0.2433,-0.2442,-0.2442,-0.2432,-0.2446,-0.2449,-0.2458,-0.2474,-0.2458,-0.2459,-0.248,-0.248,-0.2479,-0.2524,0,0,0,0,0,0,-0.2393,-0.2398,-0.2399,-0.2416,-0.2421,-0.2452,-0.2433,-0.2433,-0.2439,-0.2437,-0.2444,-0.2445,-0.2445,-0.2456,-0.2459,-0.2476,-0.246,-0.2481,-0.248,-0.2479,-0.2523,-0.2525,-0.2527,0,0,0,0,0,-0.2391,-0.2402,-0.2399,-0.2403,-0.2424,-0.2453,-0.2455,-0.2454,-0.244,-0.245,-0.2442,-0.2444,-0.2454,-0.2457,-0.2462,-0.2479,-0.2481,-0.248,-0.2479,-0.2522,-0.2525,-0.2527,0,0,0,0,0,0,-0.2379,-0.2402,-0.2398,-0.2414,-0.2433,-0.245,-0.2457,-0.2457,-0.2459,-0.2452,-0.245,-0.2452,-0.2465,-0.246,-0.2463,-0.2478,-0.2464,-0.2464,-0.2495,-0.2498,-0.25,-0.2496,-0.2462,0,0,0,0,0,-0.2378,-0.2389,-0.2414,-0.2423,-0.2435,-0.2445,-0.2453,-0.2457,-0.2464,-0.2464,-0.2467,-0.2462,-0.2467,-0.2472,-0.2475,-0.2493,-0.2479,-0.25,-0.2502,-0.2504,-0.2502,-0.2491,-0.2492,-0.2476,-0.2476,-0.2477,0,0,-0.2374,-0.2389,-0.2393,-0.2421,-0.2432,-0.2458,-0.2447,-0.2467,-0.2483,-0.2468,-0.2481,-0.2476,-0.2471,-0.2485,-0.249,-0.2484,-0.2501,-0.2503,-0.2505,-0.2501,-0.249,-0.2492,-0.2494,-0.2476,-0.2476,-0.2476,0,0,-0.2381,-0.2387,-0.2403,-0.2426,-0.2452,-0.2464,-0.2472,-0.2493,-0.2495,-0.2513,-0.2498,-0.2497,-0.2511,-0.2507,-0.2507,-0.252,-0.2513,-0.252,-0.2535,-0.2525,-0.2527,-0.2528,-0.2517,-0.2517,-0.2522,-0.2522,-0.2522,0,-0.2373,-0.2396,-0.2412,-0.244,-0.2456,-0.2469,-0.2493,-0.2508,-0.2526,-0.2527,-0.2521,-0.252,-0.2521,-0.2527,-0.2529,-0.2529,-0.2518,-0.2533,-0.253,-0.2531,-0.2531,-0.2519,-0.2519,-0.2524,-0.2524,-0.2523,-0.2523,0,-0.2396,-0.2416,-0.243,-0.2466,-0.2489,-0.2512,-0.254,-0.2555,-0.2557,-0.2564,-0.2569,-0.2562,-0.2556,-0.2559,-0.2553,-0.2555,-0.2545,-0.2537,-0.253,-0.2536,-0.2522,-0.2521,-0.2527,-0.2526,-0.2526,-0.2525,0,0,-0.2367,-0.2432,-0.2434,-0.2452,-0.2502,-0.2521,-0.2556,-0.2582,-0.2591,-0.2603,-0.2607,-0.261,-0.2595,-0.2591,-0.258,-0.2573,-0.2573,-0.2559,-0.2557,-0.2558,-0.255,-0.2473,-0.2464,-0.2568,-0.2568,-0.2568,-0.2542,0,-0.2373,-0.242,-0.2455,-0.2494,-0.2518,-0.2551,-0.2579,-0.2605,-0.2619,-0.2631,-0.2623,-0.2623,-0.2612,-0.2604,-0.2599,-0.2582,-0.257,-0.2581,-0.2534,-0.2533,-0.2472,-0.246,-0.237,-0.2332,-0.254,-0.254,-0.254,0,-0.2375,-0.2407,-0.2446,-0.25,-0.2513,-0.2538,-0.2571,-0.2602,-0.2631,-0.264,-0.2643,-0.2639,-0.2636,-0.2619,-0.2596,-0.2604,-0.2576,-0.256,-0.2558,-0.2468,-0.2452,-0.2357,-0.2322,-0.2302,-0.2537,-0.2537,-0.2537,0,-0.2327,-0.2394,-0.2418,-0.2439,-0.2508,-0.2522,-0.2551,-0.2591,-0.2608,-0.2637,-0.2645,-0.2648,-0.2638,-0.2619,-0.2587,-0.2593,-0.2553,-0.2557,-0.246,-0.2455,-0.2356,-0.2342,-0.2301,-0.2526,-0.2526,-0.2526,-0.2526,0,-0.231,-0.2326,-0.2395,-0.2406,-0.2427,-0.2488,-0.2505,-0.2541,-0.2582,-0.2595,-0.2633,-0.2633,-0.2635,-0.2616,-0.2591,-0.2515,-0.2553,-0.2453,-0.2437,-0.2368,-0.2355,-0.2315,-0.2334,-0.2525,-0.2525,-0.2525,-0.2525,0,-0.2246,-0.2296,-0.2323,-0.2388,-0.2404,-0.2413,-0.247,-0.2479,-0.2537,-0.2556,-0.2564,-0.2613,-0.2591,-0.2577,-0.2543,-0.25,-0.24,-0.2408,-0.2325,-0.2298,-0.218,-0.2204,-0.2132,-0.207,-0.2301,-0.2298,-0.2297,0,-0.2215,-0.2223,-0.2284,-0.2288,-0.2311,-0.2339,-0.2351,-0.2432,-0.2453,-0.2533,-0.2533,-0.2541,-0.252,-0.2453,-0.2385,-0.2314,-0.2309,-0.2185,-0.2171,-0.2147,-0.2165,-0.2182,-0.2137,-0.2068,-0.2064,-0.2061,-0.2059,0,-0.2141,-0.2162,-0.2179,-0.2195,-0.2207,-0.2231,-0.2267,-0.2282,-0.2376,-0.2403,-0.2436,-0.2431,-0.2385,-0.2279,-0.2189,-0.2135,-0.2127,-0.212,-0.2119,-0.1988,-0.1982,-0.1922,-0.2123,-0.2033,-0.2036,-0.2038,-0.2039,-0.204,-0.2063,-0.2055,-0.2076,-0.2077,-0.2097,-0.2105,-0.2082,-0.2143,-0.2166,-0.2191,-0.228,-0.2254,-0.2198,-0.2059,-0.1997,-0.1866,-0.1926,-0.1817,-0.1853,-0.1877,-0.1794,-0.193,-0.1807,-0.1808,-0.1809,-0.181,-0.1811,0,-0.1956,-0.1955,-0.1954,-0.1954,-0.1925,-0.198,-0.2001,-0.1964,-0.1951,-0.2017,-0.2026,-0.2016,-0.1896,-0.1851,-0.1729,-0.1639,-0.1601,-0.1603,-0.1621,-0.159,-0.1719,-0.1684,-0.1501,-0.1501,-0.1501,-0.1501,-0.1501,-0.1501,-0.1895,-0.1854,-0.1858,-0.1776,-0.1769,-0.1696,-0.1679,-0.1658,-0.1678,-0.1663,-0.1695,-0.1763,-0.1744,-0.179,-0.1643,-0.155,-0.151,-0.1456,-0.148,-0.1601,-0.1625,-0.1648,-0.1618,-0.1424,-0.1424,-0.129,-0.1289,-0.1289]},{"header":{"parameterUnit":"m.s-1","parameterCategory":2,"la1":30.2991,"la2":30.254,"lo1":-89.0895,"lo2":-89.0444,"dy":0.0017,"dx":0.0017,"nx":28,"ny":28,"refTime":"2024-12-11T03:00:00:Z","depth":"0","parameterNumber":3,"parameterNumberName":"V-component_of_CURRENTS"},"data":[0,0,0,0,0,0,0,0,0,0,0,0,0,0,0,0,0,0,0,0,0,0,0,0,0,0,0,0,0,0,0,0,0,0,0,0,0,0,0,0,0,0,0,0,0,0,0,0,0,0,0,0,0,0,0,0,0,0,-0.0394,-0.0394,0,-0.0343,-0.0343,-0.0342,-0.0298,-0.0297,-0.0297,-0.0296,-0.018,-0.0177,-0.0175,0,0,0,0,0,0,0,0,0,0,0,0,0,-0.0412,-0.0412,-0.0395,-0.0394,-0.0393,-0.0343,-0.0343,-0.0342,-0.0298,-0.0297,-0.0297,-0.0296,-0.0181,-0.0178,-0.0174,0,0,0,0,0,0,0,0,0,0,0,0,0,-0.0386,-0.0412,-0.0395,-0.0366,-0.0363,-0.0344,-0.0343,-0.0341,-0.0298,-0.0297,-0.0297,-0.0296,-0.0182,-0.0178,-0.0174,-0.016,0,0,-0.0161,-0.016,0,0,0,0,0,0,0,0,-0.0388,-0.0385,-0.0371,-0.0368,-0.0365,-0.0327,-0.0306,-0.0278,-0.0298,-0.0321,-0.0296,-0.0296,-0.0224,-0.0217,-0.0208,-0.0155,-0.015,-0.0161,-0.0159,-0.0157,-0.0156,0,0,0,0,0,0,0,-0.039,-0.0387,-0.0373,-0.0371,-0.0367,-0.0342,-0.0338,-0.0301,-0.0275,-0.0319,-0.0316,-0.0313,-0.0222,-0.0212,-0.0204,-0.0148,-0.0161,-0.0158,-0.0155,-0.0153,-0.0074,-0.0074,0,0,0,0,0,0,-0.0401,-0.0389,-0.0375,-0.0372,-0.0376,-0.0342,-0.0338,-0.0339,-0.0276,-0.0267,-0.0313,-0.0311,-0.0219,-0.0209,-0.02,-0.0176,-0.0157,-0.0153,-0.0151,-0.0074,-0.0074,-0.0074,0,0,0,0,0,0,-0.0402,-0.0401,-0.0377,-0.038,-0.0375,-0.0343,-0.0345,-0.0338,-0.0327,-0.0273,-0.0262,-0.0308,-0.0218,-0.0206,-0.0175,-0.0172,-0.0151,-0.0147,-0.0073,-0.0074,-0.0074,-0.0131,0,0,0,0,0,0,-0.0403,-0.0401,-0.0406,-0.0381,-0.0375,-0.0371,-0.0345,-0.0338,-0.0326,-0.0322,-0.0265,-0.0254,-0.0217,-0.0181,-0.0171,-0.0166,-0.0144,-0.0073,-0.0073,-0.0074,-0.0129,-0.0133,-0.0137,0,0,0,0,0,-0.0404,-0.0417,-0.0406,-0.0404,-0.0383,-0.0372,-0.0367,-0.034,-0.0327,-0.0327,-0.0291,-0.0255,-0.0177,-0.0178,-0.0166,-0.0159,-0.0072,-0.0073,-0.0074,-0.0127,-0.0133,-0.0137,0,0,0,0,0,0,-0.0426,-0.0413,-0.0401,-0.0409,-0.0393,-0.0365,-0.0363,-0.0345,-0.0318,-0.0312,-0.026,-0.0247,-0.0218,-0.0185,-0.0187,-0.014,-0.0119,-0.0117,-0.0163,-0.0168,-0.0172,-0.0186,-0.0141,0,0,0,0,0,-0.0434,-0.044,-0.042,-0.0425,-0.042,-0.0392,-0.0384,-0.0368,-0.0341,-0.0328,-0.0289,-0.0248,-0.0212,-0.0188,-0.0153,-0.0127,-0.0089,-0.0115,-0.012,-0.0124,-0.0127,-0.0081,-0.0081,-0.0077,-0.0077,-0.0077,0,0,-0.0443,-0.0437,-0.0439,-0.043,-0.0414,-0.0417,-0.0385,-0.0379,-0.0376,-0.0319,-0.0301,-0.0262,-0.021,-0.0183,-0.0166,-0.0153,-0.0103,-0.0125,-0.0129,-0.013,-0.0081,-0.0082,-0.0082,-0.0077,-0.0077,-0.0077,0,0,-0.0472,-0.046,-0.0477,-0.0469,-0.0455,-0.0437,-0.0438,-0.0413,-0.0395,-0.0376,-0.0334,-0.0297,-0.0245,-0.0206,-0.018,-0.0187,-0.013,-0.0174,-0.0201,-0.0157,-0.0156,-0.0156,-0.01,-0.0094,-0.0174,-0.0174,-0.0174,0,-0.0484,-0.0502,-0.0479,-0.0493,-0.0491,-0.0451,-0.0467,-0.0444,-0.041,-0.0395,-0.0378,-0.0301,-0.0255,-0.0216,-0.0218,-0.0195,-0.016,-0.0186,-0.0162,-0.0161,-0.0159,-0.0102,-0.0094,-0.0177,-0.0176,-0.0176,-0.0176,0,-0.0526,-0.0538,-0.0547,-0.0551,-0.0545,-0.0551,-0.0521,-0.0506,-0.0478,-0.0449,-0.0408,-0.0349,-0.0301,-0.0279,-0.0248,-0.0215,-0.0189,-0.0176,-0.015,-0.0163,-0.0102,-0.0093,-0.0181,-0.018,-0.0179,-0.0178,0,0,-0.0561,-0.0576,-0.0579,-0.0594,-0.0578,-0.058,-0.0569,-0.0548,-0.0538,-0.0492,-0.0471,-0.0406,-0.0367,-0.0336,-0.0286,-0.0245,-0.0196,-0.0211,-0.0207,-0.0157,-0.0087,-0.0029,-0.0013,-0.0181,-0.018,-0.0179,-0.0046,0,-0.0601,-0.0649,-0.0637,-0.0671,-0.0692,-0.0653,-0.0647,-0.0618,-0.0577,-0.0544,-0.0471,-0.0433,-0.039,-0.0365,-0.0316,-0.0225,-0.0177,-0.0232,-0.008,-0.0075,-0.0024,-0.0003,0.0023,0.0147,-0.0037,-0.0035,-0.0034,0,-0.0649,-0.0674,-0.0722,-0.0738,-0.0741,-0.0748,-0.0728,-0.0716,-0.0651,-0.0617,-0.0561,-0.0501,-0.0423,-0.0391,-0.0243,-0.0281,-0.0193,-0.0122,-0.0115,-0.0036,-0.0001,0.013,0.0171,0.03,-0.002,-0.0021,-0.0022,0,-0.0696,-0.0732,-0.0774,-0.078,-0.0787,-0.0793,-0.0787,-0.074,-0.0726,-0.066,-0.0635,-0.0539,-0.0478,-0.037,-0.0213,-0.0231,-0.0042,-0.0046,0.0091,0.0097,0.0163,0.0173,0.0345,0.0052,0.0051,0.0051,0.0051,0,-0.075,-0.0782,-0.0801,-0.0825,-0.0864,-0.0845,-0.086,-0.0834,-0.0787,-0.0765,-0.0676,-0.0624,-0.0471,-0.0341,-0.0218,-0.0019,-0.0039,0.0098,0.0137,0.0145,0.0151,0.0301,0.0346,0.0056,0.0055,0.0054,0.0053,0,-0.0799,-0.0812,-0.0862,-0.0884,-0.0892,-0.0918,-0.0918,-0.092,-0.0867,-0.0832,-0.0813,-0.0674,-0.0498,-0.0326,-0.0122,-0.0011,0.0251,0.023,0.0239,0.0277,0.0503,0.0542,0.0762,0.0834,0.0393,0.0395,0.0397,0,-0.0829,-0.0862,-0.0911,-0.0941,-0.0955,-0.0984,-0.0999,-0.0967,-0.0958,-0.0853,-0.0834,-0.066,-0.0517,-0.0183,0.004,0.0284,0.0373,0.0445,0.0411,0.0536,0.061,0.0638,0.0683,0.0483,0.0485,0.0487,0.0489,0,-0.088,-0.0896,-0.0936,-0.1004,-0.1038,-0.1073,-0.1085,-0.1089,-0.1031,-0.0974,-0.0851,-0.0727,-0.0393,-0.0095,0.0226,0.0369,0.0544,0.0494,0.0622,0.07,0.0743,0.0824,0.038,0.0507,0.0505,0.0504,0.0503,0.0502,-0.0906,-0.0949,-0.1,-0.1062,-0.1107,-0.1144,-0.1158,-0.1145,-0.1112,-0.1,-0.087,-0.0651,-0.0228,0.0233,0.0405,0.0756,0.0715,0.0845,0.0886,0.0907,0.0969,0.0572,0.0738,0.0738,0.0738,0.0737,0.0737,0,-0.0934,-0.0983,-0.1051,-0.1121,-0.1174,-0.1183,-0.1199,-0.118,-0.1128,-0.0994,-0.0843,-0.0379,0.005,0.0435,0.093,0.1125,0.1154,0.1223,0.1261,0.129,0.0947,0.0942,0.1161,0.1161,0.1161,0.1161,0.1161,0.1161,-0.095,-0.1019,-0.106,-0.1154,-0.12,-0.1234,-0.1236,-0.1187,-0.1091,-0.0841,-0.0589,-0.0388,0.017,0.0973,0.1433,0.148,0.1622,0.1631,0.1705,0.1455,0.1422,0.139,0.1398,0.1709,0.171,0.2027,0.203,0.2033]}],[{"header":{"parameterUnit":"m.s-1","parameterCategory":2,"la1":30.2991,"la2":30.254,"lo1":-89.0895,"lo2":-89.0444,"dy":0.0017,"dx":0.0017,"nx":28,"ny":28,"refTime":"2024-12-11T03:00:00:Z","depth":"2","parameterNumber":2,"parameterNumberName":"U-component_of_CURRENTS"},"data":[0,0,0,0,0,0,0,0,0,0,0,0,0,0,0,0,0,0,0,0,0,0,0,0,0,0,0,0,0,0,0,0,0,0,0,0,0,0,0,0,0,0,0,0,0,0,0,0,0,0,0,0,0,0,0,0,0,0,-0.2149,-0.2149,0,-0.2174,-0.2174,-0.2175,-0.2165,-0.2165,-0.2164,-0.2164,-0.2189,-0.219,-0.2191,0,0,0,0,0,0,0,0,0,0,0,0,0,-0.2096,-0.2097,-0.2148,-0.2149,-0.2149,-0.2174,-0.2175,-0.2175,-0.2165,-0.2165,-0.2164,-0.2164,-0.2189,-0.219,-0.2191,0,0,0,0,0,0,0,0,0,0,0,0,0,-0.2118,-0.2097,-0.2148,-0.2149,-0.2149,-0.2174,-0.2175,-0.2175,-0.2165,-0.2165,-0.2164,-0.2163,-0.2188,-0.219,-0.2192,-0.2214,0,0,-0.2196,-0.2197,0,0,0,0,0,0,0,0,-0.2117,-0.212,-0.2148,-0.2149,-0.215,-0.2167,-0.2165,-0.2188,-0.2165,-0.2157,-0.2164,-0.2163,-0.2184,-0.2186,-0.2189,-0.2215,-0.2216,-0.2197,-0.2198,-0.2198,-0.2199,0,0,0,0,0,0,0,-0.2115,-0.2119,-0.2157,-0.2149,-0.215,-0.215,-0.2152,-0.217,-0.2172,-0.2158,-0.2158,-0.2164,-0.2183,-0.2188,-0.219,-0.2217,-0.2197,-0.2198,-0.2199,-0.22,-0.2227,-0.2227,0,0,0,0,0,0,-0.2117,-0.2117,-0.2156,-0.2158,-0.2133,-0.2151,-0.2154,-0.2161,-0.2172,-0.2174,-0.2164,-0.2163,-0.2185,-0.2188,-0.2191,-0.2216,-0.2198,-0.22,-0.2201,-0.2228,-0.2227,-0.2227,0,0,0,0,0,0,-0.2115,-0.212,-0.2155,-0.2139,-0.2144,-0.2153,-0.2161,-0.2162,-0.2166,-0.2177,-0.2178,-0.2168,-0.2185,-0.2188,-0.22,-0.2217,-0.22,-0.2202,-0.2228,-0.2227,-0.2227,-0.2267,0,0,0,0,0,0,-0.2114,-0.2119,-0.2122,-0.214,-0.2145,-0.2175,-0.2162,-0.2163,-0.2172,-0.2171,-0.2181,-0.2183,-0.2185,-0.2198,-0.2202,-0.2218,-0.2203,-0.2228,-0.2228,-0.2227,-0.2266,-0.2268,-0.227,0,0,0,0,0,-0.2112,-0.2123,-0.2122,-0.2126,-0.2149,-0.2176,-0.2179,-0.2182,-0.2173,-0.2182,-0.2179,-0.2182,-0.2197,-0.2199,-0.2204,-0.2222,-0.2228,-0.2228,-0.2227,-0.2265,-0.2268,-0.227,0,0,0,0,0,0,-0.2099,-0.2123,-0.2123,-0.2139,-0.2158,-0.2175,-0.2183,-0.2185,-0.2191,-0.2186,-0.2188,-0.219,-0.2205,-0.2203,-0.2204,-0.2223,-0.2211,-0.2211,-0.2238,-0.224,-0.2242,-0.224,-0.2204,0,0,0,0,0,-0.2099,-0.2111,-0.2135,-0.2146,-0.2157,-0.217,-0.2179,-0.2185,-0.2194,-0.2195,-0.2202,-0.2202,-0.2208,-0.2215,-0.222,-0.2239,-0.2227,-0.2247,-0.2249,-0.2251,-0.225,-0.224,-0.2242,-0.2225,-0.2225,-0.2225,0,0,-0.2096,-0.2111,-0.2116,-0.2144,-0.2156,-0.218,-0.2173,-0.2193,-0.221,-0.2199,-0.2216,-0.2214,-0.2213,-0.2229,-0.2235,-0.223,-0.2249,-0.2251,-0.2253,-0.225,-0.224,-0.2242,-0.2243,-0.2225,-0.2225,-0.2225,0,0,-0.2102,-0.2111,-0.2126,-0.2147,-0.2173,-0.2187,-0.2194,-0.2217,-0.2222,-0.2243,-0.2231,-0.2233,-0.2252,-0.2249,-0.2251,-0.2265,-0.226,-0.2268,-0.2283,-0.2274,-0.2276,-0.2277,-0.2268,-0.2268,-0.227,-0.227,-0.227,0,-0.2096,-0.2118,-0.2135,-0.216,-0.2176,-0.2191,-0.2214,-0.223,-0.2251,-0.2256,-0.2251,-0.2259,-0.226,-0.227,-0.2272,-0.2273,-0.2265,-0.228,-0.2278,-0.2279,-0.228,-0.227,-0.227,-0.2272,-0.2272,-0.2271,-0.2271,0,-0.2116,-0.2136,-0.2149,-0.2183,-0.2205,-0.2228,-0.2257,-0.2274,-0.228,-0.229,-0.2301,-0.2297,-0.2297,-0.23,-0.2295,-0.23,-0.2292,-0.2284,-0.2277,-0.2284,-0.2273,-0.2272,-0.2274,-0.2274,-0.2273,-0.2273,0,0,-0.2091,-0.215,-0.2153,-0.2171,-0.2218,-0.2237,-0.2272,-0.2301,-0.2315,-0.233,-0.2342,-0.2345,-0.2335,-0.2333,-0.2325,-0.2318,-0.2319,-0.2306,-0.2305,-0.2305,-0.2301,-0.223,-0.2222,-0.2315,-0.2314,-0.2314,-0.2294,0,-0.2096,-0.2139,-0.2172,-0.221,-0.2232,-0.2266,-0.2296,-0.2324,-0.2343,-0.2362,-0.2358,-0.2365,-0.2351,-0.2349,-0.2343,-0.2328,-0.2317,-0.2325,-0.2286,-0.2285,-0.2228,-0.2219,-0.2067,-0.2029,-0.2293,-0.2292,-0.2292,0,-0.2097,-0.2127,-0.2164,-0.2218,-0.2231,-0.2257,-0.2297,-0.2329,-0.2365,-0.2378,-0.2387,-0.2388,-0.2387,-0.2368,-0.2346,-0.2353,-0.2326,-0.231,-0.2309,-0.2226,-0.2211,-0.2062,-0.2017,-0.229,-0.229,-0.229,-0.2291,0,-0.2054,-0.2117,-0.2142,-0.2162,-0.2229,-0.2246,-0.2278,-0.2323,-0.2344,-0.2383,-0.2396,-0.2402,-0.2396,-0.2376,-0.2343,-0.2347,-0.2311,-0.2313,-0.2222,-0.2217,-0.2069,-0.2051,-0.2283,-0.2283,-0.2283,-0.2283,-0.2283,0,-0.2038,-0.2056,-0.2122,-0.2134,-0.2161,-0.2219,-0.2245,-0.2284,-0.2331,-0.2348,-0.239,-0.2393,-0.2396,-0.2379,-0.2352,-0.2278,-0.2315,-0.2216,-0.2202,-0.2078,-0.2061,-0.2272,-0.2271,-0.2282,-0.2282,-0.2283,-0.2283,0,-0.1979,-0.2027,-0.2056,-0.2122,-0.214,-0.2155,-0.2217,-0.2232,-0.2295,-0.232,-0.2331,-0.238,-0.2359,-0.2348,-0.2315,-0.227,-0.2221,-0.2182,-0.2036,-0.2004,-0.2134,-0.2136,-0.2086,-0.2084,-0.2081,-0.2079,-0.2078,0,-0.195,-0.196,-0.2024,-0.2031,-0.2057,-0.2092,-0.2108,-0.2191,-0.2214,-0.2297,-0.2298,-0.2312,-0.2287,-0.2226,-0.2158,-0.2088,-0.2149,-0.1907,-0.188,-0.2121,-0.2112,-0.2117,-0.2122,-0.1705,-0.17,-0.1697,-0.1694,0,-0.1883,-0.1907,-0.1925,-0.1947,-0.1965,-0.1993,-0.2032,-0.2047,-0.214,-0.2165,-0.219,-0.2183,-0.2144,-0.2006,-0.1927,-0.1867,-0.1911,-0.1828,-0.2105,-0.178,-0.1759,-0.1752,-0.1769,-0.166,-0.1664,-0.1666,-0.1668,-0.1669,-0.1813,-0.1809,-0.1832,-0.184,-0.1864,-0.1872,-0.1849,-0.1903,-0.1919,-0.1929,-0.2018,-0.1955,-0.1939,-0.1739,-0.1643,-0.1569,-0.1698,-0.1621,-0.1633,-0.1649,-0.161,-0.1586,-0.1448,-0.145,-0.1452,-0.1453,-0.1454,0,-0.1716,-0.1718,-0.1721,-0.1725,-0.1699,-0.1756,-0.1772,-0.1726,-0.1695,-0.1734,-0.1727,-0.1564,-0.1469,-0.1456,-0.1295,-0.1256,-0.1246,-0.1198,-0.1193,-0.1227,-0.1257,-0.1199,-0.0927,-0.0925,-0.0924,-0.0922,0,0,-0.1662,-0.1625,-0.1628,-0.1553,-0.155,-0.1477,-0.1455,-0.1414,-0.141,-0.1341,-0.1312,-0.1409,-0.1432,-0.1192,-0.1124,-0.1003,-0.1103,-0.0949,-0.1375,-0.1404,-0.1432,-0.1503,-0.1452,0,0,0,0,0]},{"header":{"parameterUnit":"m.s-1","parameterCategory":2,"la1":30.2991,"la2":30.254,"lo1":-89.0895,"lo2":-89.0444,"dy":0.0017,"dx":0.0017,"nx":28,"ny":28,"refTime":"2024-12-11T03:00:00:Z","depth":"2","parameterNumber":3,"parameterNumberName":"V-component_of_CURRENTS"},"data":[0,0,0,0,0,0,0,0,0,0,0,0,0,0,0,0,0,0,0,0,0,0,0,0,0,0,0,0,0,0,0,0,0,0,0,0,0,0,0,0,0,0,0,0,0,0,0,0,0,0,0,0,0,0,0,0,0,0,-0.0319,-0.0318,0,-0.0277,-0.0277,-0.0276,-0.0239,-0.0239,-0.0239,-0.0238,-0.0141,-0.0138,-0.0136,0,0,0,0,0,0,0,0,0,0,0,0,0,-0.0329,-0.0329,-0.0319,-0.0318,-0.0318,-0.0277,-0.0277,-0.0276,-0.0239,-0.0239,-0.0238,-0.0238,-0.0141,-0.0139,-0.0136,0,0,0,0,0,0,0,0,0,0,0,0,0,-0.0309,-0.0329,-0.0319,-0.0295,-0.0293,-0.0278,-0.0277,-0.0276,-0.0239,-0.0239,-0.0238,-0.0238,-0.0142,-0.0139,-0.0136,-0.0125,0,0,-0.0125,-0.0124,0,0,0,0,0,0,0,0,-0.031,-0.0308,-0.0299,-0.0297,-0.0294,-0.0264,-0.0245,-0.0223,-0.024,-0.0259,-0.0238,-0.0238,-0.0178,-0.0171,-0.0164,-0.012,-0.0116,-0.0125,-0.0123,-0.0121,-0.012,0,0,0,0,0,0,0,-0.0311,-0.031,-0.0301,-0.0299,-0.0296,-0.0274,-0.0271,-0.024,-0.022,-0.0257,-0.0254,-0.0252,-0.0176,-0.0167,-0.0161,-0.0115,-0.0125,-0.0122,-0.012,-0.0118,-0.0055,-0.0055,0,0,0,0,0,0,-0.0321,-0.0311,-0.0303,-0.03,-0.0302,-0.0275,-0.0271,-0.0273,-0.0221,-0.0213,-0.0252,-0.025,-0.0174,-0.0165,-0.0158,-0.0136,-0.0121,-0.0118,-0.0116,-0.0055,-0.0055,-0.0055,0,0,0,0,0,0,-0.0322,-0.0321,-0.0304,-0.0305,-0.0302,-0.0276,-0.0278,-0.0273,-0.0264,-0.0218,-0.0209,-0.0249,-0.0173,-0.0162,-0.0138,-0.0132,-0.0116,-0.0113,-0.0054,-0.0055,-0.0055,-0.0097,0,0,0,0,0,0,-0.0322,-0.0322,-0.0326,-0.0306,-0.0302,-0.0301,-0.0278,-0.0272,-0.0264,-0.026,-0.0212,-0.0203,-0.0172,-0.0143,-0.0134,-0.0127,-0.0111,-0.0054,-0.0054,-0.0055,-0.0095,-0.0099,-0.0102,0,0,0,0,0,-0.0323,-0.0335,-0.0326,-0.0325,-0.0309,-0.0302,-0.0298,-0.0276,-0.0264,-0.0265,-0.0235,-0.0204,-0.0141,-0.0141,-0.013,-0.0122,-0.0053,-0.0054,-0.0055,-0.0093,-0.0098,-0.0102,0,0,0,0,0,0,-0.0342,-0.0332,-0.0322,-0.0331,-0.0319,-0.0296,-0.0295,-0.0281,-0.0259,-0.0254,-0.021,-0.0199,-0.0175,-0.0147,-0.0149,-0.0108,-0.0091,-0.009,-0.0124,-0.0128,-0.0132,-0.0141,-0.0108,0,0,0,0,0,-0.0349,-0.0355,-0.034,-0.0346,-0.0342,-0.0319,-0.0313,-0.03,-0.0278,-0.0268,-0.0235,-0.0201,-0.017,-0.015,-0.0122,-0.0099,-0.0063,-0.0087,-0.0091,-0.0094,-0.0095,-0.004,-0.0038,-0.0058,-0.0058,-0.0058,0,0,-0.0358,-0.0353,-0.0356,-0.035,-0.0338,-0.0341,-0.0314,-0.031,-0.0307,-0.026,-0.0245,-0.0213,-0.0169,-0.0146,-0.0132,-0.012,-0.007,-0.0095,-0.0098,-0.0097,-0.0041,-0.0039,-0.0037,-0.0059,-0.0059,-0.0058,0,0,-0.0384,-0.0375,-0.0391,-0.0385,-0.0374,-0.0359,-0.0361,-0.0341,-0.0325,-0.0311,-0.0274,-0.024,-0.02,-0.0162,-0.0139,-0.0145,-0.0094,-0.0137,-0.0154,-0.0101,-0.0098,-0.0096,-0.0049,-0.0042,-0.0134,-0.0134,-0.0134,0,-0.0396,-0.0413,-0.0393,-0.0407,-0.0406,-0.0371,-0.0387,-0.0366,-0.034,-0.0324,-0.0313,-0.0244,-0.0206,-0.0164,-0.0167,-0.015,-0.0117,-0.0141,-0.0104,-0.0101,-0.0098,-0.0051,-0.0042,-0.0136,-0.0136,-0.0136,-0.0136,0,-0.0435,-0.0446,-0.0455,-0.046,-0.0454,-0.0461,-0.0434,-0.0421,-0.0397,-0.037,-0.0329,-0.0278,-0.0234,-0.0216,-0.0192,-0.015,-0.0134,-0.0118,-0.0093,-0.0098,-0.0048,-0.0039,-0.0139,-0.0139,-0.0138,-0.0138,0,0,-0.0468,-0.0482,-0.0485,-0.0497,-0.0484,-0.0486,-0.0475,-0.0453,-0.0441,-0.0399,-0.0374,-0.0317,-0.028,-0.0252,-0.0209,-0.0162,-0.0109,-0.0136,-0.0132,-0.0089,0.0005,0.0033,0.0047,-0.0086,-0.0085,-0.0084,0.003,0,-0.0505,-0.0548,-0.0537,-0.0567,-0.0586,-0.055,-0.0543,-0.0513,-0.0475,-0.044,-0.0368,-0.0332,-0.0295,-0.0273,-0.0218,-0.0139,-0.0086,-0.0141,0.0002,0.0007,0.0034,0.0058,0.0034,0.0134,0.0039,0.0041,0.0042,0,-0.0549,-0.0572,-0.0615,-0.0626,-0.0629,-0.0635,-0.0612,-0.06,-0.0533,-0.0501,-0.044,-0.0384,-0.0305,-0.0277,-0.0133,-0.0171,-0.0089,-0.0025,-0.0018,0.0029,0.0053,0.0125,0.0156,0.0058,0.0057,0.0056,0.0055,0,-0.0593,-0.0624,-0.0661,-0.0667,-0.0671,-0.0674,-0.0667,-0.0619,-0.0606,-0.0535,-0.0512,-0.041,-0.0357,-0.0244,-0.0108,-0.0119,0.0053,0.0059,0.0165,0.0168,0.0187,0.0189,0.0165,0.0164,0.0164,0.0164,0.0164,0,-0.0642,-0.067,-0.0687,-0.0709,-0.0743,-0.0723,-0.0735,-0.0708,-0.0661,-0.0642,-0.0547,-0.0502,-0.0347,-0.0229,-0.011,0.0062,0.006,0.0171,0.0204,0.0171,0.017,0.0133,0.0127,0.0168,0.0167,0.0166,0.0166,0,-0.0688,-0.0699,-0.0744,-0.0763,-0.077,-0.0794,-0.0795,-0.0796,-0.0744,-0.0713,-0.0694,-0.0562,-0.0405,-0.024,-0.0045,0.006,0.0217,0.0278,0.0226,0.0251,0.0294,0.0285,0.0406,0.0408,0.041,0.0412,0.0413,0,-0.0716,-0.0746,-0.0791,-0.0821,-0.0834,-0.0861,-0.0877,-0.0844,-0.0838,-0.0746,-0.0731,-0.0577,-0.0454,-0.0152,0.0056,0.0282,0.0278,0.0387,0.0365,0.0302,0.0322,0.031,0.0299,0.0374,0.0375,0.0376,0.0376,0,-0.0765,-0.078,-0.0817,-0.0885,-0.0918,-0.0953,-0.0967,-0.0973,-0.092,-0.0873,-0.0774,-0.0668,-0.0376,-0.0127,0.0165,0.0293,0.0346,0.0408,0.0376,0.031,0.0279,0.0296,0.0285,0.0382,0.0382,0.0381,0.0381,0.0381,-0.0792,-0.0833,-0.0883,-0.0943,-0.0989,-0.1029,-0.1045,-0.1036,-0.1013,-0.092,-0.0816,-0.0629,-0.039,0.0027,0.0238,0.0435,0.0425,0.0473,0.0468,0.0463,0.0432,0.0406,0.0527,0.0527,0.0527,0.0527,0.0528,0,-0.0824,-0.087,-0.0936,-0.1005,-0.106,-0.1069,-0.1091,-0.1075,-0.1037,-0.0926,-0.0805,-0.0528,-0.024,0.0016,0.033,0.0512,0.0494,0.0542,0.0478,0.0471,0.0466,0.0432,0.0528,0.0529,0.0529,0.053,0,0,-0.0842,-0.091,-0.0947,-0.1044,-0.1091,-0.1132,-0.1138,-0.1094,-0.101,-0.0885,-0.0743,-0.0552,-0.0238,-0.002,0.0214,0.0382,0.0378,0.04,0.0381,0.0271,0.0263,0.041,0.035,0,0,0,0,0]}],[{"header":{"parameterUnit":"m.s-1","parameterCategory":2,"la1":30.2991,"la2":30.254,"lo1":-89.0895,"lo2":-89.0444,"dy":0.0017,"dx":0.0017,"nx":28,"ny":28,"refTime":"2024-12-11T03:00:00:Z","depth":"4","parameterNumber":2,"parameterNumberName":"U-component_of_CURRENTS"},"data":[0,0,0,0,0,0,0,0,0,0,0,0,0,0,0,0,0,0,0,0,0,0,0,0,0,0,0,0,0,0,0,0,0,0,0,0,0,0,0,0,0,0,0,0,0,0,0,0,0,0,0,0,0,0,0,0,0,0,-0.1566,-0.1566,0,-0.1625,-0.1626,-0.1626,-0.167,-0.167,-0.1671,-0.1671,-0.1752,-0.1754,-0.1756,0,0,0,0,0,0,0,0,0,0,0,0,0,-0.1483,-0.1485,-0.1566,-0.1566,-0.1567,-0.1625,-0.1626,-0.1626,-0.167,-0.167,-0.1671,-0.1672,-0.1752,-0.1754,-0.1756,0,0,0,0,0,0,0,0,0,0,0,0,0,-0.1527,-0.1485,-0.1565,-0.1597,-0.1601,-0.1625,-0.1626,-0.1627,-0.167,-0.167,-0.1671,-0.1672,-0.1751,-0.1754,-0.1756,-0.1757,0,0,-0.1764,-0.1765,0,0,0,0,0,0,0,0,-0.1525,-0.153,-0.1591,-0.1595,-0.1599,-0.1642,-0.1627,-0.1672,-0.167,-0.1642,-0.1671,-0.1672,-0.1718,-0.1723,-0.173,-0.176,-0.1764,-0.1764,-0.1766,-0.1767,-0.1767,0,0,0,0,0,0,0,-0.1522,-0.1528,-0.1588,-0.1592,-0.1597,-0.1606,-0.1613,-0.1635,-0.1674,-0.1644,-0.1648,-0.1657,-0.172,-0.1728,-0.1733,-0.1765,-0.1764,-0.1766,-0.1768,-0.1769,-0.1839,-0.184,0,0,0,0,0,0,-0.1517,-0.1525,-0.1586,-0.159,-0.1564,-0.1607,-0.1615,-0.1626,-0.1674,-0.1682,-0.1656,-0.1659,-0.1723,-0.173,-0.1736,-0.1798,-0.1767,-0.1769,-0.1771,-0.1839,-0.184,-0.184,0,0,0,0,0,0,-0.1515,-0.1522,-0.1583,-0.1559,-0.1568,-0.1608,-0.162,-0.1627,-0.1662,-0.1683,-0.1691,-0.1687,-0.1724,-0.1732,-0.1772,-0.18,-0.177,-0.1773,-0.1839,-0.1839,-0.184,-0.1886,0,0,0,0,0,0,-0.1512,-0.1521,-0.1539,-0.1559,-0.1569,-0.1616,-0.162,-0.1628,-0.1665,-0.167,-0.1711,-0.1718,-0.1725,-0.1768,-0.1774,-0.1803,-0.1775,-0.1838,-0.1839,-0.184,-0.1884,-0.1888,-0.1891,0,0,0,0,0,-0.1509,-0.1528,-0.1539,-0.1547,-0.1589,-0.1617,-0.1624,-0.1652,-0.1666,-0.1686,-0.1709,-0.1718,-0.1776,-0.1771,-0.1778,-0.1808,-0.1838,-0.1839,-0.1839,-0.1882,-0.1887,-0.1891,0,0,0,0,0,0,-0.1504,-0.1535,-0.1548,-0.1577,-0.1603,-0.1625,-0.165,-0.1667,-0.17,-0.1712,-0.1728,-0.1736,-0.1779,-0.1782,-0.1775,-0.1826,-0.1807,-0.1809,-0.1836,-0.1841,-0.1845,-0.1839,-0.1777,0,0,0,0,0,-0.1509,-0.1533,-0.1561,-0.1586,-0.1602,-0.163,-0.165,-0.167,-0.1696,-0.1714,-0.1741,-0.1764,-0.1783,-0.1804,-0.182,-0.1855,-0.1842,-0.1874,-0.1878,-0.1881,-0.188,-0.1877,-0.1881,-0.1843,-0.1843,-0.1843,0,0,-0.1515,-0.1535,-0.1551,-0.1588,-0.1611,-0.1639,-0.1645,-0.1683,-0.1711,-0.1717,-0.1771,-0.1783,-0.1793,-0.1828,-0.1848,-0.1841,-0.1886,-0.1882,-0.1886,-0.1882,-0.1879,-0.1882,-0.1886,-0.1843,-0.1843,-0.1843,0,0,-0.1529,-0.1558,-0.158,-0.1605,-0.1646,-0.1663,-0.1679,-0.1717,-0.1744,-0.1788,-0.1793,-0.1818,-0.1861,-0.1867,-0.1875,-0.1907,-0.1903,-0.1919,-0.1942,-0.1941,-0.1944,-0.1947,-0.1938,-0.194,-0.1924,-0.1924,-0.1924,0,-0.1537,-0.1566,-0.1591,-0.1619,-0.1644,-0.1676,-0.1706,-0.1735,-0.1783,-0.1803,-0.1813,-0.1861,-0.1875,-0.1901,-0.1913,-0.1917,-0.1913,-0.1929,-0.1947,-0.1949,-0.1951,-0.1941,-0.1942,-0.1927,-0.1926,-0.1926,-0.1926,0,-0.1557,-0.1593,-0.161,-0.1654,-0.1685,-0.1718,-0.1756,-0.1795,-0.183,-0.1853,-0.1898,-0.191,-0.1935,-0.1945,-0.1944,-0.1967,-0.1958,-0.195,-0.1937,-0.1958,-0.1946,-0.1946,-0.193,-0.1929,-0.1928,-0.1928,0,0,-0.154,-0.1611,-0.162,-0.1648,-0.1709,-0.1732,-0.1786,-0.1833,-0.1868,-0.1911,-0.195,-0.1976,-0.1983,-0.1989,-0.1991,-0.1994,-0.2006,-0.1985,-0.1984,-0.198,-0.2003,-0.1875,-0.1863,-0.2008,-0.2008,-0.2009,-0.1991,0,-0.155,-0.1602,-0.1639,-0.1696,-0.1725,-0.1775,-0.182,-0.1869,-0.1911,-0.1957,-0.1974,-0.2008,-0.2,-0.2017,-0.2019,-0.2014,-0.2009,-0.2012,-0.198,-0.1979,-0.1866,-0.186,-0.2009,-0.1991,-0.1991,-0.1991,-0.1991,0,-0.1548,-0.1587,-0.1642,-0.1716,-0.1735,-0.1778,-0.1851,-0.1896,-0.196,-0.1993,-0.2027,-0.2043,-0.2063,-0.2049,-0.2043,-0.205,-0.2028,-0.2015,-0.2014,-0.1876,-0.1851,-0.1965,-0.1991,-0.1991,-0.1991,-0.1991,-0.1991,0,-0.1505,-0.1586,-0.1631,-0.1658,-0.1745,-0.1786,-0.1836,-0.1907,-0.1944,-0.2015,-0.2043,-0.2073,-0.2087,-0.2075,-0.2049,-0.2055,-0.2029,-0.2032,-0.1891,-0.1883,-0.1987,-0.1984,-0.2011,-0.2011,-0.2011,-0.2012,-0.2012,0,-0.148,-0.152,-0.1621,-0.1643,-0.1702,-0.1772,-0.1834,-0.189,-0.1962,-0.199,-0.2054,-0.2063,-0.2094,-0.2084,-0.206,-0.1965,-0.2034,-0.1883,-0.1863,-0.2006,-0.2006,-0.1987,-0.1984,-0.2011,-0.2011,-0.2011,-0.2011,0,-0.1415,-0.1485,-0.1542,-0.1646,-0.1682,-0.1724,-0.1826,-0.1855,-0.1941,-0.198,-0.2002,-0.2061,-0.2043,-0.2046,-0.2023,-0.1954,-0.1895,-0.1842,-0.1991,-0.1982,-0.1752,-0.1752,-0.1688,-0.1683,-0.1679,-0.1676,-0.1673,0,-0.1381,-0.1406,-0.1527,-0.1558,-0.161,-0.1685,-0.1723,-0.1829,-0.1855,-0.1951,-0.1948,-0.1976,-0.1993,-0.185,-0.188,-0.1814,-0.1787,-0.175,-0.1749,-0.1729,-0.1717,-0.1723,-0.1729,-0.1666,-0.1665,-0.1664,-0.1663,0,-0.131,-0.1369,-0.1413,-0.1481,-0.1536,-0.1587,-0.1655,-0.1661,-0.1763,-0.1862,-0.183,-0.1808,-0.1782,-0.1755,-0.1707,-0.1665,-0.1775,-0.1707,-0.1716,-0.1714,-0.1702,-0.1695,-0.1705,-0.1649,-0.1651,-0.1652,-0.1653,0,-0.1254,-0.1269,-0.1335,-0.1378,-0.1446,-0.1459,-0.1513,-0.1532,-0.1572,-0.168,-0.1664,-0.1697,-0.176,-0.1675,-0.1637,-0.1579,-0.1558,-0.1504,-0.1523,-0.1539,-0.1496,-0.1459,-0.1301,0,0,0,0,0,-0.1188,-0.1188,-0.1222,-0.1262,-0.1322,-0.1358,-0.1447,-0.1501,-0.1604,-0.1533,-0.1593,-0.156,-0.1505,-0.153,-0.1435,-0.1571,-0.1566,-0.1456,-0.1517,-0.1571,-0.1587,-0.1549,0,0,0,0,0,0,-0.1141,-0.1171,-0.118,-0.115,-0.1149,-0.1199,-0.1248,-0.132,-0.1293,-0.1401,-0.1374,-0.1459,-0.1426,-0.1523,-0.1399,-0.1404,-0.1408,-0.1488,-0.1484,-0.1561,-0.1576,-0.1589,-0.1556,0,0,0,0,0]},{"header":{"parameterUnit":"m.s-1","parameterCategory":2,"la1":30.2991,"la2":30.254,"lo1":-89.0895,"lo2":-89.0444,"dy":0.0017,"dx":0.0017,"nx":28,"ny":28,"refTime":"2024-12-11T03:00:00:Z","depth":"4","parameterNumber":3,"parameterNumberName":"V-component_of_CURRENTS"},"data":[0,0,0,0,0,0,0,0,0,0,0,0,0,0,0,0,0,0,0,0,0,0,0,0,0,0,0,0,0,0,0,0,0,0,0,0,0,0,0,0,0,0,0,0,0,0,0,0,0,0,0,0,0,0,0,0,0,0,-0.0226,-0.0226,0,-0.0206,-0.0205,-0.0205,-0.0186,-0.0186,-0.0186,-0.0186,-0.0122,-0.0121,-0.0119,0,0,0,0,0,0,0,0,0,0,0,0,0,-0.0222,-0.0222,-0.0226,-0.0226,-0.0226,-0.0206,-0.0205,-0.0205,-0.0186,-0.0186,-0.0186,-0.0186,-0.0123,-0.0121,-0.0119,0,0,0,0,0,0,0,0,0,0,0,0,0,-0.0214,-0.0222,-0.0226,-0.0214,-0.0213,-0.0206,-0.0205,-0.0205,-0.0186,-0.0186,-0.0186,-0.0186,-0.0123,-0.0121,-0.0119,-0.0109,0,0,-0.0112,-0.0111,0,0,0,0,0,0,0,0,-0.0214,-0.0214,-0.0216,-0.0215,-0.0214,-0.0199,-0.018,-0.0171,-0.0186,-0.0196,-0.0186,-0.0185,-0.0145,-0.0141,-0.0137,-0.0106,-0.0104,-0.0112,-0.011,-0.0109,-0.0109,0,0,0,0,0,0,0,-0.0215,-0.0215,-0.0217,-0.0216,-0.0215,-0.0201,-0.02,-0.0179,-0.017,-0.0195,-0.0194,-0.0193,-0.0144,-0.0139,-0.0135,-0.0103,-0.0112,-0.011,-0.0108,-0.0107,-0.0069,-0.0069,0,0,0,0,0,0,-0.0221,-0.0215,-0.0218,-0.0216,-0.0214,-0.0201,-0.02,-0.0203,-0.0171,-0.0167,-0.0193,-0.0192,-0.0143,-0.0138,-0.0133,-0.012,-0.0109,-0.0107,-0.0106,-0.0068,-0.0069,-0.0069,0,0,0,0,0,0,-0.0221,-0.0221,-0.0218,-0.0216,-0.0214,-0.0202,-0.0206,-0.0203,-0.0201,-0.0171,-0.0165,-0.0194,-0.0143,-0.0136,-0.0123,-0.0117,-0.0106,-0.0104,-0.0068,-0.0068,-0.0069,-0.0094,0,0,0,0,0,0,-0.0221,-0.0222,-0.0227,-0.0216,-0.0215,-0.0221,-0.0206,-0.0203,-0.0201,-0.02,-0.017,-0.0164,-0.0142,-0.0127,-0.0121,-0.0114,-0.0102,-0.0067,-0.0068,-0.0069,-0.0093,-0.0095,-0.0097,0,0,0,0,0,-0.0221,-0.0232,-0.0228,-0.0228,-0.0223,-0.0221,-0.0219,-0.0209,-0.0202,-0.0205,-0.0187,-0.0165,-0.0126,-0.0125,-0.0118,-0.011,-0.0067,-0.0068,-0.0069,-0.0091,-0.0095,-0.0097,0,0,0,0,0,0,-0.0234,-0.0231,-0.0226,-0.0236,-0.0231,-0.0218,-0.0221,-0.0213,-0.0202,-0.0201,-0.017,-0.0163,-0.0149,-0.0131,-0.0131,-0.0103,-0.0092,-0.0092,-0.0112,-0.0115,-0.0117,-0.012,-0.01,0,0,0,0,0,-0.024,-0.0247,-0.024,-0.0248,-0.0247,-0.0235,-0.0233,-0.0227,-0.0215,-0.021,-0.019,-0.0168,-0.0147,-0.0133,-0.0116,-0.01,-0.0068,-0.0091,-0.0093,-0.0095,-0.0094,-0.0038,-0.0034,-0.0072,-0.0072,-0.0072,0,0,-0.0248,-0.0247,-0.0251,-0.0251,-0.0246,-0.0252,-0.0233,-0.0236,-0.0236,-0.0204,-0.0199,-0.0177,-0.0147,-0.0131,-0.0123,-0.0114,-0.0071,-0.0096,-0.0098,-0.0096,-0.0038,-0.0034,-0.0031,-0.0072,-0.0072,-0.0072,0,0,-0.0269,-0.0266,-0.028,-0.0279,-0.0277,-0.0268,-0.0271,-0.0261,-0.0252,-0.0247,-0.0221,-0.0196,-0.0174,-0.0142,-0.0125,-0.013,-0.0089,-0.0128,-0.0135,-0.0081,-0.0077,-0.0073,-0.0037,-0.003,-0.0125,-0.0125,-0.0125,0,-0.0279,-0.0295,-0.0283,-0.0296,-0.0299,-0.0278,-0.0292,-0.028,-0.0267,-0.0254,-0.0252,-0.0201,-0.0175,-0.0137,-0.0142,-0.0132,-0.0104,-0.0125,-0.0082,-0.0077,-0.0073,-0.0038,-0.0029,-0.0126,-0.0126,-0.0126,-0.0126,0,-0.031,-0.0323,-0.0331,-0.0339,-0.0338,-0.0348,-0.0331,-0.0324,-0.0311,-0.0291,-0.0259,-0.0222,-0.0188,-0.0175,-0.0161,-0.0116,-0.0109,-0.0094,-0.0072,-0.007,-0.0034,-0.0025,-0.0128,-0.0127,-0.0127,-0.0127,0,0,-0.0333,-0.0351,-0.0355,-0.0367,-0.0363,-0.0368,-0.0361,-0.0346,-0.0338,-0.0308,-0.0287,-0.0243,-0.0213,-0.0192,-0.016,-0.0112,-0.006,-0.0095,-0.0092,-0.0056,0.0047,0.0025,0.0033,-0.0035,-0.0034,-0.0032,0.0057,0,-0.0362,-0.04,-0.0395,-0.0424,-0.0441,-0.0417,-0.0414,-0.0393,-0.0366,-0.0339,-0.0277,-0.025,-0.0221,-0.0206,-0.0151,-0.0087,-0.0036,-0.0087,0.0037,0.004,0.0024,0.0043,-0.0027,0.0064,0.0066,0.0068,0.0069,0,-0.0395,-0.0416,-0.0455,-0.0469,-0.0473,-0.0484,-0.0471,-0.0464,-0.0409,-0.0385,-0.0331,-0.0286,-0.0214,-0.0193,-0.0062,-0.0098,-0.0029,0.0026,0.0031,0.0027,0.0035,0.0065,0.0086,0.0085,0.0084,0.0082,0.0081,0,-0.0423,-0.0456,-0.049,-0.0497,-0.0508,-0.0516,-0.0516,-0.048,-0.0473,-0.0413,-0.0397,-0.03,-0.026,-0.0153,-0.0046,-0.005,0.0096,0.0109,0.0158,0.0157,0.0162,0.0157,0.0211,0.0211,0.021,0.021,0.021,0,-0.0455,-0.0483,-0.0512,-0.0532,-0.0568,-0.0557,-0.0575,-0.0555,-0.0522,-0.0509,-0.0426,-0.0392,-0.0248,-0.015,-0.0046,0.0079,0.0103,0.0162,0.0184,0.0146,0.0139,0.0168,0.0162,0.0214,0.0213,0.0212,0.0212,0,-0.0481,-0.05,-0.0545,-0.0574,-0.0587,-0.0614,-0.0632,-0.0636,-0.0599,-0.0579,-0.0564,-0.0454,-0.0329,-0.0186,-0.0012,0.0066,0.0194,0.0234,0.0171,0.0187,0.0218,0.021,0.0302,0.0302,0.0302,0.0302,0.0302,0,-0.0496,-0.0525,-0.0584,-0.0619,-0.0639,-0.0676,-0.0698,-0.068,-0.0678,-0.0617,-0.0605,-0.0489,-0.0403,-0.0171,-0.0024,0.0179,0.0206,0.0267,0.0257,0.0218,0.0231,0.0222,0.0214,0.0302,0.0302,0.0302,0.0302,0,-0.0524,-0.0551,-0.0588,-0.0665,-0.0709,-0.075,-0.0776,-0.0778,-0.0745,-0.0718,-0.0629,-0.0504,-0.0362,-0.018,-0.0025,0.0121,0.0225,0.0268,0.0269,0.0261,0.022,0.0231,0.0222,0.0303,0.0303,0.0303,0.0303,0,-0.0542,-0.0579,-0.0637,-0.0698,-0.0762,-0.0803,-0.0812,-0.0798,-0.0785,-0.0707,-0.0681,-0.0518,-0.042,-0.021,-0.0066,0.0072,0.0108,0.0149,0.0157,0.0159,0.0087,0.0012,0.0057,0,0,0,0,0,-0.0553,-0.0598,-0.0664,-0.0732,-0.0797,-0.0828,-0.0853,-0.0846,-0.0815,-0.0759,-0.0715,-0.0579,-0.0356,-0.0254,-0.0119,-0.0071,0.0123,0.009,0.0172,0.0304,0.0304,0.0241,0,0,0,0,0,0,-0.0564,-0.0628,-0.0663,-0.0746,-0.0795,-0.0857,-0.0873,-0.0851,-0.0806,-0.0756,-0.0634,-0.056,-0.034,-0.0436,-0.0121,-0.0079,-0.0011,0.02,0.0202,0.0304,0.0304,0.0304,0.0239,0,0,0,0,0]}]]